Wind_Speed
25 20 15 12 15 20 17 20 21 19 20 19 21 25 26 26 25 26 23 21 23 29 23 18 20 21 23 23 19 18 20 18 18 20 19 19 18 20 21 20 17 16 18 17 16 18 18 15 17
25 23 17 12 14 17 19 20 20 19 18 17 19 19 21 20 21 22 20 21 26 19 17 17 18 20 20 20 18 16 17 17 18 19 18 19 19 20 20 20 19 17 17 17 17 18 17 16 14
23 23 19 19 14 14 19 22 20 17 17 16 17 18 16 17 17 19 21 17 19 18 15 18 17 17 20 17 17 16 15 15 17 19 18 18 19 20 19 19 18 19 18 16 15 17 17 17 15
24 26 22 18 15 13 16 18 18 16 15 15 14 16 14 15 14 17 17 17 16 16 14 16 17 18 17 16 17 16 15 14 15 16 16 17 17 18 15 16 15 16 15 16 16 15 16 19 17
22 22 23 21 18 16 13 15 16 16 15 12 11 14 12 12 11 14 15 14 13 13 14 14 16 17 17 16 16 15 15 14 14 14 13 14 15 15 15 15 14 15 13 15 17 16 17 19 20
26 21 19 22 21 17 17 13 15 15 14 12 9 13 13 10 8 12 12 13 10 11 13 13 15 16 16 15 13 14 13 14 15 13 12 13 14 13 14 13 13 15 14 14 17 13 14 19 15
24 22 22 23 21 21 18 16 14 13 12 12 9 9 13 11 7 11 12 11 10 11 11 13 14 15 15 14 12 11 11 10 11 11 12 11 12 12 12 14 14 16 16 14 16 16 15 17 17
22 15 17 21 20 20 19 15 16 12 11 12 11 8 9 12 8 9 12 11 11 11 11 10 12 13 14 12 11 10 9 7 7 7 9 10 9 10 10 11 14 13 13 15 13 15 15 18 19
12 10 18 22 21 16 18 17 14 13 11 10 9 11 8 8 10 8 10 10 11 12 12 11 12 13 12 11 10 8 7 5 4 5 7 7 7 8 8 8 9 10 8 8 9 12 13 13 14
16 15 11 20 18 22 18 16 15 14 11 10 8 8 12 8 7 8 9 9 11 13 13 13 11 11 10 10 8 7 5 4 4 5 4 5 6 7 5 6 7 8 8 8 7 6 10 12 11
10 12 9 14 16 21 22 18 14 15 10 9 8 8 10 11 10 6 8 9 10 12 12 11 10 10 10 8 6 6 5 5 4 4 5 6 5 5 6 6 7 6 6 7 9 12 10 8 9
13 21 16 14 13 16 19 21 16 13 14 12 8 8 9 11 11 9 6 6 9 10 11 11 11 9 7 5 2 3 2 3 4 4 4 4 4 4 6 6 7 7 6 7 8 8 6 4 6
14 20 19 16 16 13 14 19 19 14 13 16 13 10 8 8 8 8 9 9 7 9 10 11 10 8 6 3 2 1 2 2 4 3 3 4 3 4 4 6 5 6 7 6 6 6 6 3 3
11 17 20 20 16 8 10 14 17 14 11 13 13 14 11 7 5 5 5 7 9 10 11 10 10 7 5 4 3 2 0 5 6 4 4 4 3 3 4 5 5 6 7 7 7 5 4 4 4
8 11 17 16 12 7 9 12 14 14 12 12 11 12 12 9 5 4 2 4 7 9 12 11 10 9 6 3 3 3 1 4 5 6 6 4 2 5 6 6 5 7 7 7 5 3 4 3 3
4 5 11 12 12 10 9 8 9 13 11 9 10 10 11 9 7 5 3 2 2 7 9 8 8 7 5 3 3 5 4 6 6 5 5 1 3 7 8 7 7 7 7 6 5 3 3 2 1
6 5 9 11 8 7 7 9 7 9 11 6 9 10 8 9 7 4 2 1 5 3 4 5 4 3 4 3 4 6 6 5 5 2 4 4 5 6 5 5 6 7 7 5 3 2 2 2 1
4 7 5 7 10 13 14 9 9 8 7 13 4 7 9 9 8 4 2 2 3 3 1 3 3 2 2 2 5 6 7 6 4 2 2 5 3 3 4 5 6 6 7 6 3 1 1 1 2
9 2 3 5 5 8 8 7 7 4 3 7 13 6 6 8 9 5 2 1 2 3 1 3 3 2 0 4 4 4 7 6 5 5 4 4 3 3 6 4 9 11 10 8 5 2 2 2 1
10 10 4 5 13 10 4 1 5 4 5 8 10 9 7 7 6 4 4 1 1 3 6 3 4 4 3 3 4 4 5 4 3 5 5 5 3 3 5 11 11 13 14 11 8 5 3 3 4
9 12 10 11 13 14 10 5 5 9 5 6 7 9 2 4 4 4 3 3 4 3 5 6 6 5 3 2 4 6 5 5 5 7 7 4 4 8 9 12 14 17 17 7 9 7 2 4 5
9 10 14 15 17 15 11 10 4 5 8 4 0 4 8 4 1 3 3 4 4 5 7 6 7 4 3 4 5 4 5 6 5 3 3 4 5 8 10 11 16 18 15 7 9 6 2 2 2
8 17 17 18 18 18 13 8 7 5 6 5 6 1 4 2 6 2 1 2 4 5 5 7 6 6 4 4 2 3 4 5 4 4 6 4 5 7 10 13 14 17 15 7 12 8 4 4 1
19 22 19 20 19 15 12 9 9 2 5 5 2 4 4 4 7 6 4 3 2 3 4 2 3 1 3 2 3 4 2 4 4 3 2 3 4 7 8 12 14 17 16 6 12 9 6 4 2
19 25 25 24 24 10 14 14 9 5 4 2 9 6 7 3 5 8 8 7 3 3 3 2 3 3 3 1 1 3 5 5 4 1 1 2 2 3 6 10 14 19 18 1 11 9 5 3 3
22 33 30 26 21 17 17 11 7 4 2 5 9 3 7 7 3 7 10 10 5 1 2 5 6 7 7 6 6 2 3 5 4 2 1 1 2 1 6 10 14 16 15 3 7 6 6 4 3
23 33 30 25 21 21 20 12 10 6 4 9 7 3 1 6 5 8 9 10 10 2 1 2 4 7 7 6 7 6 2 2 3 3 2 6 4 1 4 9 11 14 12 6 4 7 6 5 5
25 25 31 31 26 24 21 19 9 7 9 8 8 3 4 6 12 11 12 9 11 10 5 3 5 7 9 9 7 5 5 2 1 1 4 6 4 4 5 6 8 10 10 8 3 0 4 6 8
14 12 18 24 29 26 24 17 9 9 9 5 2 2 6 9 8 14 16 12 15 7 5 6 8 11 13 18 10 7 5 2 0 3 6 7 5 5 6 7 8 10 10 7 6 4 5 6 6
17 10 13 19 21 24 17 19 16 10 5 5 6 4 4 11 13 13 7 8 11 6 6 7 11 15 21 9 9 4 4 2 2 2 4 7 9 9 8 8 11 12 12 10 9 9 9 8 8
Wind_Direction
57 63 73 72 73 79 78 79 77 93 101 100 100 97 93 87 79 75 114 120 121 113 105 108 112 115 111 108 106 108 105 103 101 97 90 84 74 68 70 72 64 55 56 54 49 49 53 60 63
59 57 59 72 71 74 79 79 79 84 97 101 104 103 102 94 89 88 89 74 85 97 109 114 114 114 112 106 109 107 105 109 106 98 94 87 80 71 64 65 62 55 51 52 49 55 53 50 54
66 67 56 53 67 68 72 78 78 79 87 101 99 105 106 105 94 98 99 100 113 109 111 113 115 113 102 107 104 100 102 109 107 103 96 89 80 76 71 63 58 56 49 46 45 53 47 44 50
71 72 66 61 66 79 73 77 87 92 89 99 108 105 103 94 108 106 104 105 108 114 115 118 113 101 100 101 98 101 101 99 100 103 101 90 81 76 73 69 53 53 54 40 46 50 49 41 42
57 67 66 65 61 72 89 85 87 85 87 95 102 105 101 92 100 105 111 110 106 112 110 105 107 107 101 101 102 101 102 102 103 103 96 84 78 74 64 55 50 40 41 48 51 51 57 67 71
45 42 51 63 63 69 81 92 90 89 90 84 97 109 99 87 107 117 113 112 117 112 109 109 108 105 105 104 104 104 101 108 106 109 99 86 79 68 62 61 59 45 41 44 57 54 66 69 61
45 51 45 44 50 53 64 81 86 87 91 89 83 92 102 96 99 122 118 113 124 114 112 115 116 114 114 110 103 101 100 102 103 102 90 82 75 72 65 65 64 49 35 32 59 62 67 62 47
57 48 48 44 49 47 56 72 87 98 98 93 93 96 102 109 110 115 118 125 123 117 118 116 118 122 118 114 109 115 113 114 115 106 93 82 69 69 72 69 66 46 36 43 54 63 54 56 57
46 65 66 59 55 55 55 65 75 80 85 90 107 108 101 129 126 132 129 133 135 139 145 138 138 127 128 124 129 127 120 120 124 97 84 73 72 80 88 68 59 52 46 37 34 57 74 64 58
67 55 52 74 62 65 64 69 69 74 80 87 99 117 121 129 114 146 143 150 147 144 149 145 141 138 132 133 133 122 115 138 138 116 94 89 96 97 72 66 49 28 33 22 34 13 58 69 73
58 61 82 78 83 69 63 68 78 80 84 86 88 112 129 129 132 153 151 156 150 142 147 145 139 139 140 139 131 117 138 128 112 113 130 114 100 84 55 34 37 41 23 33 35 38 45 53 69
71 82 66 48 82 74 66 71 82 83 80 70 64 87 99 127 144 149 170 184 161 154 155 157 153 151 149 143 130 131 130 116 112 117 99 88 85 82 63 47 31 27 17 35 29 38 39 8 68
66 79 68 95 81 94 73 65 68 76 73 75 60 57 84 105 113 141 168 180 181 176 175 172 167 166 178 184 220 163 132 206 182 142 135 90 77 25 30 37 17 14 7 3 3 3 7 351 339
70 82 89 102 93 106 75 66 64 66 75 70 69 59 56 86 117 130 155 178 186 204 201 197 183 183 214 243 233 179 187 213 191 154 162 118 110 60 14 16 3 354 346 338 339 337 342 327 319
65 71 91 106 97 108 74 52 52 51 64 76 71 73 64 60 70 101 151 193 179 187 205 204 204 192 202 225 232 186 253 191 172 158 143 121 83 45 15 349 357 10 348 332 332 348 339 339 307
25 23 88 109 89 80 75 53 36 32 46 87 88 87 93 81 63 31 28 327 264 192 191 178 182 182 166 166 192 216 208 152 142 131 117 125 52 46 32 25 22 20 13 356 345 2 349 351 281
56 53 86 127 98 92 101 86 41 15 9 43 109 100 102 102 81 61 48 352 325 307 193 181 164 170 151 175 193 224 186 180 140 117 148 98 53 54 33 18 9 10 4 7 342 341 339 356 214
92 35 91 149 102 104 101 83 34 16 26 27 55 116 113 124 114 85 29 2 2 321 180 200 192 218 209 184 223 214 189 203 176 202 164 123 79 7 8 15 350 350 339 344 347 337 310 335 320
162 188 112 193 162 141 113 95 46 27 19 359 12 10 45 111 114 95 50 217 111 67 140 143 138 78 122 156 203 211 186 187 174 208 228 170 208 334 331 9 340 329 317 310 303 275 234 248 272
197 182 148 144 167 174 171 140 101 100 38 25 0 358 10 34 73 111 93 96 138 102 86 96 97 86 94 153 199 201 188 176 199 219 200 195 247 302 335 325 334 337 331 273 256 241 226 252 205
215 199 212 227 193 189 201 214 95 60 71 25 39 29 11 347 26 73 68 50 54 62 90 93 90 96 114 162 202 218 212 202 209 220 205 197 295 333 338 334 345 343 349 285 225 235 214 241 219
222 228 210 206 212 197 215 209 163 69 18 332 305 36 9 316 305 111 48 39 26 46 71 78 83 88 136 154 189 231 232 212 209 211 249 290 337 333 332 348 345 341 339 311 220 223 233 222 239
197 224 227 228 229 215 219 182 189 234 341 299 217 35 351 347 288 259 247 7 18 340 70 78 74 93 100 115 164 220 227 237 235 234 260 312 342 350 355 356 346 341 335 277 207 194 192 180 65
209 226 232 230 226 228 232 182 164 181 41 34 245 285 75 1 358 302 261 232 274 323 313 94 113 87 116 72 76 69 179 233 249 280 342 29 37 5 3 357 354 351 352 273 200 190 183 168 127
236 222 234 231 233 226 234 221 175 152 47 109 185 69 63 274 304 348 302 286 264 242 276 278 309 248 246 269 355 72 78 82 78 79 152 89 91 0 358 8 6 10 7 91 188 196 181 164 166
230 216 233 240 245 220 232 214 163 133 84 163 167 133 45 27 304 327 340 342 322 138 307 273 279 287 251 263 291 322 89 92 87 81 223 184 194 277 4 10 13 22 20 73 190 194 172 169 185
228 225 231 241 239 222 227 197 144 149 196 164 164 134 34 21 17 324 292 319 334 299 302 301 272 286 280 247 274 272 178 128 95 77 138 159 204 241 354 7 11 19 26 45 175 178 183 213 221
215 221 228 240 240 244 239 217 174 196 186 194 185 165 16 347 4 344 296 307 322 305 251 303 272 260 258 231 209 235 248 177 295 190 161 180 209 267 301 336 356 1 7 16 29 187 258 261 266
201 215 238 243 241 240 246 226 208 200 188 230 126 48 22 353 341 302 253 284 307 261 253 271 270 263 244 223 179 193 208 213 264 243 220 215 244 262 272 298 317 332 331 339 344 329 296 292 295
196 205 224 234 236 237 221 201 224 220 216 279 194 327 338 347 321 290 244 269 268 260 260 263 266 287 315 337 156 186 222 239 294 328 275 248 250 268 282 294 303 312 315 302 309 315 308 308 305
Height
5893 5891 5890 5889 5891 5887 5887 5885 5884 5885 5885 5885 5885 5885 5885 5885 5886 5890 5887 5890 5888 5892 5897 5899 5898 5900 5901 5903 5906 5906 5905 5909 5910 5909 5912 5913 5913 5912 5909 5908 5909 5910 5908 5908 5907 5907 5906 5904 5902
5896 5895 5893 5892 5891 5890 5890 5888 5886 5888 5889 5889 5889 5889 5889 5892 5891 5892 5894 5896 5898 5900 5901 5902 5903 5903 5905 5906 5909 5910 5910 5912 5913 5913 5914 5916 5916 5915 5915 5913 5912 5913 5912 5910 5911 5910 5908 5906 5905
5901 5897 5896 5894 5895 5894 5893 5892 5891 5891 5892 5893 5894 5894 5893 5894 5895 5897 5897 5901 5903 5905 5907 5905 5907 5908 5906 5909 5912 5914 5914 5916 5916 5915 5917 5917 5918 5917 5918 5917 5916 5915 5916 5914 5912 5912 5910 5908 5907
5905 5901 5899 5898 5897 5896 5896 5896 5896 5896 5896 5896 5897 5898 5899 5899 5900 5900 5901 5903 5905 5907 5909 5909 5910 5910 5912 5914 5914 5917 5917 5919 5920 5920 5920 5918 5919 5919 5920 5919 5919 5917 5917 5918 5915 5914 5912 5909 5908
5910 5907 5903 5900 5899 5897 5897 5898 5898 5898 5899 5900 5900 5900 5901 5902 5903 5904 5905 5906 5908 5910 5911 5912 5913 5914 5915 5916 5917 5919 5919 5921 5923 5923 5923 5921 5920 5920 5920 5921 5921 5920 5920 5920 5918 5915 5914 5912 5910
5915 5913 5910 5905 5903 5902 5900 5899 5899 5899 5901 5902 5903 5902 5902 5904 5906 5907 5908 5909 5912 5912 5912 5914 5915 5915 5916 5918 5920 5920 5921 5924 5924 5925 5924 5923 5922 5922 5922 5922 5922 5922 5921 5923 5921 5918 5916 5915 5913
5919 5918 5914 5909 5907 5906 5903 5902 5902 5902 5903 5904 5905 5905 5905 5907 5909 5910 5911 5913 5914 5915 5916 5916 5916 5917 5919 5921 5923 5923 5923 5925 5927 5928 5926 5926 5924 5924 5926 5924 5924 5924 5925 5923 5922 5920 5918 5916 5915
5919 5920 5917 5913 5910 5908 5908 5906 5903 5905 5905 5906 5907 5907 5908 5908 5911 5912 5913 5915 5915 5916 5917 5918 5918 5920 5921 5922 5924 5925 5925 5926 5928 5928 5927 5927 5927 5926 5928 5926 5925 5925 5928 5927 5924 5922 5920 5920 5918
5919 5920 5918 5917 5914 5914 5913 5911 5908 5906 5907 5907 5907 5909 5910 5910 5911 5913 5914 5915 5916 5917 5919 5919 5921 5922 5923 5923 5925 5927 5926 5928 5930 5929 5927 5928 5929 5929 5929 5929 5927 5927 5928 5928 5928 5927 5924 5922 5921
5921 5922 5921 5920 5920 5917 5916 5915 5912 5910 5910 5909 5910 5910 5911 5912 5912 5914 5915 5916 5917 5918 5919 5920 5921 5923 5924 5926 5928 5927 5927 5930 5930 5928 5928 5929 5930 5931 5931 5931 5929 5928 5929 5928 5929 5928 5927 5925 5925
5925 5923 5922 5922 5923 5920 5920 5918 5916 5914 5912 5911 5912 5913 5912 5913 5914 5915 5915 5917 5918 5918 5919 5921 5922 5924 5926 5928 5929 5928 5929 5929 5929 5930 5930 5930 5932 5933 5933 5932 5931 5932 5932 5931 5930 5929 5927 5928 5928
5927 5924 5923 5923 5925 5923 5922 5921 5919 5919 5916 5913 5914 5916 5914 5914 5916 5917 5918 5918 5919 5919 5920 5922 5924 5926 5927 5927 5928 5930 5929 5929 5930 5931 5932 5932 5933 5934 5933 5933 5933 5932 5933 5932 5931 5931 5930 5929 5930
5928 5926 5925 5925 5925 5925 5925 5924 5922 5922 5919 5916 5916 5914 5915 5915 5916 5918 5919 5920 5921 5922 5922 5923 5925 5926 5927 5928 5930 5929 5929 5929 5930 5931 5933 5933 5934 5934 5935 5934 5934 5933 5933 5932 5932 5931 5930 5929 5929
5930 5928 5926 5927 5927 5927 5927 5927 5928 5926 5923 5920 5918 5917 5917 5917 5917 5919 5919 5921 5922 5923 5923 5924 5925 5926 5927 5929 5929 5928 5927 5929 5929 5931 5931 5932 5932 5932 5933 5933 5933 5933 5932 5931 5931 5931 5930 5929 5928
5931 5930 5929 5929 5930 5930 5928 5929 5930 5930 5927 5924 5922 5920 5921 5920 5920 5920 5921 5921 5922 5923 5923 5923 5924 5925 5925 5928 5928 5927 5928 5930 5930 5930 5931 5931 5932 5932 5933 5933 5933 5932 5931 5930 5929 5929 5929 5928 5927
5932 5932 5930 5932 5931 5931 5931 5931 5931 5930 5929 5928 5927 5923 5922 5923 5922 5921 5922 5922 5922 5922 5923 5923 5923 5924 5924 5926 5927 5928 5930 5930 5930 5930 5930 5931 5931 5931 5932 5932 5933 5932 5931 5930 5929 5928 5928 5928 5926
5932 5931 5931 5931 5931 5932 5933 5933 5932 5931 5931 5930 5929 5926 5924 5923 5924 5924 5924 5922 5921 5921 5920 5921 5921 5922 5923 5925 5927 5928 5930 5929 5929 5930 5931 5932 5933 5932 5932 5933 5933 5932 5931 5929 5929 5929 5928 5927 5926
5933 5933 5932 5932 5933 5932 5933 5934 5933 5932 5931 5931 5930 5929 5927 5925 5924 5925 5924 5923 5923 5922 5921 5920 5921 5921 5923 5924 5925 5928 5929 5930 5928 5930 5931 5931 5933 5933 5933 5934 5933 5932 5931 5930 5928 5928 5927 5927 5927
5934 5934 5934 5933 5934 5935 5935 5936 5935 5934 5932 5930 5930 5927 5927 5927 5924 5924 5925 5925 5925 5924 5923 5922 5922 5922 5923 5924 5925 5927 5929 5929 5929 5929 5931 5932 5934 5934 5934 5933 5933 5931 5930 5929 5927 5927 5927 5927 5926
5933 5934 5935 5934 5934 5934 5935 5935 5936 5936 5934 5932 5931 5930 5928 5927 5927 5927 5927 5927 5926 5925 5923 5924 5924 5923 5924 5926 5927 5927 5928 5927 5928 5929 5931 5932 5933 5934 5934 5933 5931 5929 5926 5925 5925 5926 5926 5926 5926
5931 5932 5935 5936 5934 5933 5933 5935 5936 5936 5934 5934 5932 5931 5930 5929 5928 5927 5927 5927 5926 5925 5924 5924 5924 5924 5925 5927 5928 5928 5927 5927 5929 5931 5932 5932 5933 5933 5933 5932 5929 5925 5923 5922 5923 5925 5925 5926 5926
5928 5930 5932 5933 5933 5933 5932 5934 5936 5937 5936 5935 5934 5932 5931 5930 5929 5928 5927 5927 5926 5925 5923 5924 5924 5925 5926 5927 5928 5928 5929 5929 5930 5932 5932 5933 5933 5933 5932 5930 5927 5924 5921 5920 5922 5924 5923 5924 5925
5927 5926 5928 5930 5931 5932 5931 5932 5935 5935 5934 5933 5933 5932 5931 5929 5928 5928 5928 5926 5925 5925 5924 5923 5926 5927 5927 5927 5926 5926 5928 5930 5931 5933 5934 5934 5933 5933 5930 5928 5927 5923 5919 5918 5919 5922 5923 5924 5924
5922 5923 5925 5927 5928 5930 5932 5931 5934 5933 5933 5933 5933 5933 5930 5929 5928 5927 5928 5927 5925 5925 5925 5924 5925 5928 5927 5927 5927 5926 5927 5929 5930 5931 5932 5931 5931 5931 5929 5928 5926 5921 5916 5915 5918 5919 5922 5924 5924
5917 5920 5921 5924 5926 5930 5929 5931 5931 5931 5931 5931 5932 5932 5930 5929 5928 5927 5927 5928 5926 5925 5926 5925 5926 5927 5927 5926 5928 5927 5927 5928 5928 5929 5930 5929 5930 5930 5930 5928 5925 5920 5915 5914 5917 5919 5921 5923 5924
5913 5917 5919 5921 5924 5928 5926 5928 5929 5930 5930 5930 5930 5931 5929 5928 5927 5927 5926 5926 5927 5925 5926 5926 5925 5926 5925 5925 5927 5928 5928 5928 5928 5928 5928 5928 5930 5930 5930 5928 5925 5921 5919 5918 5919 5920 5920 5921 5922
5910 5913 5917 5918 5920 5921 5922 5927 5927 5928 5930 5929 5929 5929 5929 5929 5927 5927 5926 5926 5926 5926 5926 5925 5925 5925 5925 5923 5926 5927 5927 5927 5927 5927 5927 5928 5929 5930 5929 5928 5926 5924 5922 5921 5920 5920 5919 5920 5920
5907 5911 5912 5913 5914 5916 5918 5922 5924 5927 5929 5928 5929 5928 5927 5928 5927 5926 5925 5924 5924 5925 5925 5924 5924 5923 5921 5920 5919 5923 5926 5926 5927 5927 5927 5927 5928 5928 5928 5927 5926 5925 5924 5923 5922 5920 5920 5919 5919
5905 5906 5908 5910 5910 5911 5915 5919 5923 5925 5926 5928 5928 5927 5927 5926 5924 5926 5925 5923 5922 5923 5923 5922 5922 5919 5915 5909 5911 5918 5921 5923 5925 5926 5926 5926 5925 5925 5926 5926 5924 5925 5924 5923 5922 5921 5920 5919 5919
5900 5903 5904 5904 5907 5909 5913 5918 5919 5922 5924 5925 5926 5925 5924 5923 5921 5920 5921 5922 5922 5920 5920 5920 5919 5913 5900 5910 5911 5916 5918 5920 5922 5923 5923 5923 5923 5923 5923 5923 5923 5923 5922 5922 5921 5921 5920 5919 5917